User: anonymous   Login
Location: Kott?ru
(16.6209°N, 80.6208°E)
Time: 01:57:39
(UTC+00:00)
Language:

Cosmos 1437 Rocket - Orbit

View from above orbital plane
View from above orbital plane
View from above satellite
View from above satellite

Ground track
Ground track

The orbit data is extracted from the following two-line orbital elements,

1 13771U 83003B   20328.54143169 +.00000462 +00000-0 +25750-4 0  9996
2 13771 081.1700 355.9481 0042814 159.6627 200.6316 15.10721785063260
Epoch (UTC): 23 November 2020 12:59:39
Eccentricity: 0.0042814
inclination: 81.1700°
perigee height: 504 km
apogee height: 563 km
right ascension of ascending node: 355.9481°
argument of perigee: 159.6627°
revolutions per day: 15.10721785
mean anomaly at epoch: 200.6316°
orbit number at epoch: 6326

The dashed part of the orbit path shows where the satellite is in the earth's shadow,  

DLR